Location: PSU-Greenbush Astrophysical Observatory
(37.5140°N, 94.9880°W)
Time: 09:45:54
(UTC-05:00)

BEESAT - Pass Details

Date: 28 February 2020
Orbit: 700 x 709 km, 98.6° (Epoch: 09 April)

Event Time Altitude Azimuth Distance (km) Brightness Sun altitude
Rises 05:42:17 0° 180° (S) 3,082 ? -14.9°
Reaches altitude 10° 05:44:37 10° 186° (S) 2,167 ? -14.4°
Maximum altitude 05:49:11 47° 260° (W) 935 ? -13.5°
Drops below altitude 10° 05:53:46 10° 334° (NNW) 2,177 ? -12.6°
Sets 05:56:07 0° 340° (NNW) 3,098 ? -12.1°
